PAKSAT-MM1 (59915 NORAD) Tracking and Keplerian Element Data

This shows tracking and keplerian element data for the satellite.

Feedback or suggestion? Click here.




ElementValue
Catalog59915
NamePAKSAT-MM1
Epoch Orbit258
Epoch Day34.11965008
Epoch Year2025
RAAN116.6335
Inclination0.0198
Eccentricity0.0001903
Argument of Perigee185.7518
Mean Anonmoly272.4041
Mean Motion1.00272728
Decay Rate1.58E-06
L11 59915U 24104A 25034.11965008 .00000158 00000+0 00000+0 0 9996
L22 59915 0.0198 116.6335 0001903 185.7518 272.4041 1.00272728 2586



Live tracking and technical data element details for PAKSAT-MM1 (NORAD 59915). PAKSAT-MM1 can be tracked NOW for your location showing map with azimuth and elevation plus other details from your city location.







IsCatalogInMostPopularTable: catalog: 59915, numindb: 73
Update: records affected: 1



GetName: 59915 PAKSAT-MM1

Hit Count: updated at: Mon, 23 Jun 2025 12:03:30 GMT